Location: Arcadia
(34.1397°N, 118.0353°W)
Time: 22:22:39
(UTC+00:00)

Cosmos 2237 - Pass Details

Date: 08 September 2024
Orbit: 848 x 853 km, 70.8° (Epoch: 13 October)

Event Time Altitude Azimuth Distance (km) Brightness Sun altitude
Rises 12:03:05 0° 333° (NNW) 3,414 7.3 -18.5°
Reaches altitude 10° 12:05:35 10° 328° (NNW) 2,475 6.5 -18.0°
Maximum altitude 12:11:05 53° 254° (WSW) 1,037 4.3 -16.9°
Drops below altitude 10° 12:16:33 10° 178° (S) 2,461 6.5 -15.8°
Sets 12:19:03 0° 174° (S) 3,393 7.2 -15.3°
